Mullan Pass, ID

10:08 AM PDT on October 15, 2019 (GMT -0700)
Mullan Pass

Weather History for KMLP - August, 2019

Change the Weather History Date:

Saturday, August 24, 2019

  Actual Average (WUND) Record (WUND)
Temperature  
Mean Temperature 58 °F -  
Max Temperature 64 °F - - (-1)
Min Temperature 52 °F - - (-1)
Degree Days  
Heating Degree Days 7    
Growing Degree Days 8 (Base 50)    
Moisture  
Dew Point 39 °F    
Average Humidity 53    
Maximum Humidity 72    
Minimum Humidity 44    
Precipitation  
Precipitation 0.00 in - - ()
Sea Level Pressure  
Sea Level Pressure 29.76 in    
Wind  
Wind Speed 6 mph (SW)    
Max Wind Speed 9 mph    
Max Gust Speed 18 mph    
Visibility 10 miles    
Events      
Averages and records for this station are not official NWS values.
T = Trace of Precipitation, MM = Missing Value Source: NWS Daily Summary

Daily Weather History Graph

Daily Weather History Graph

Search for Another Location

Airport or City:

Astronomy

Aug. 24, 2019 Rise Set
Actual Time 5:50 AM PDT 7:38 PM PDT
Civil Twilight 5:18 AM PDT 8:11 PM PDT
Nautical Twilight 4:37 AM PDT 8:50 PM PDT
Astronomical Twilight 3:53 AM PDT 9:34 PM PDT
Moon No Moon Rise 3:10 PM PDT (8/24)
Length of Visible Light 14h 53m
Length of Day
13h 47m
Last Quarter, 38% of the Moon is Illuminated
Aug 24
Last Quarter
Aug 30
New
Sep 5
First Quarter
Sep 13
Full
Sep 21
Last Quarter

Hourly Weather History & Observations

Time (PDT) Temp. Dew Point Humidity Pressure Visibility Wind Dir Wind Speed Gust Speed Precip Events Conditions
12:53 AM 57.0 °F 45.0 °F 64% 29.76 in 10.0 mi WSW 5.8 mph - N/A   Clear
1:53 AM 55.9 °F 46.0 °F 69% 29.74 in 10.0 mi Variable 5.8 mph - N/A   Clear
2:53 AM 55.9 °F 44.1 °F 64% 29.73 in 10.0 mi SW 5.8 mph - N/A   Clear
3:53 AM 55.0 °F 44.1 °F 67% 29.73 in 10.0 mi SW 5.8 mph - N/A   Clear
4:53 AM 54.0 °F 45.0 °F 72% 29.73 in 10.0 mi SW 5.8 mph - N/A   Scattered Clouds
5:53 AM 55.0 °F 39.0 °F 55% 29.74 in 10.0 mi SW 6.9 mph - N/A   Clear
6:53 AM 54.0 °F 37.9 °F 55% 29.76 in 10.0 mi SW 8.1 mph - N/A   Scattered Clouds
7:53 AM 54.0 °F 39.0 °F 57% 29.75 in 10.0 mi Variable 6.9 mph - N/A   Overcast
8:53 AM 55.9 °F 39.0 °F 53% 29.77 in 10.0 mi Variable 6.9 mph - N/A   Scattered Clouds
9:53 AM 57.9 °F 39.0 °F 49% 29.75 in 10.0 mi Variable 5.8 mph - N/A   Clear
10:53 AM 60.1 °F 39.0 °F 46% 29.75 in 10.0 mi Variable 6.9 mph - N/A   Partly Cloudy
11:53 AM 61.0 °F 42.1 °F 50% 29.74 in 10.0 mi SW 9.2 mph - N/A   Mostly Cloudy
12:53 PM 61.0 °F 44.1 °F 54% 29.74 in 10.0 mi SW 8.1 mph - N/A   Mostly Cloudy
1:53 PM 63.0 °F 43.0 °F 48% 29.74 in 10.0 mi SW 8.1 mph - N/A   Scattered Clouds
2:53 PM 60.1 °F 39.0 °F 46% 29.75 in 10.0 mi Variable 5.8 mph 18.4 mph N/A   Mostly Cloudy
3:53 PM 60.1 °F 37.9 °F 44% 29.77 in 10.0 mi North - - N/A   Scattered Clouds
4:53 PM 60.1 °F 39.0 °F 46% 29.77 in 10.0 mi Variable 5.8 mph - N/A   Clear
5:53 PM 57.9 °F 39.0 °F 49% 29.78 in 10.0 mi Calm Calm - N/A   Clear
6:53 PM 57.0 °F 35.1 °F 44% 29.79 in 10.0 mi Variable 5.8 mph - N/A   Partly Cloudy
7:53 PM 55.0 °F 34.0 °F 45% 29.79 in 10.0 mi Variable 5.8 mph - N/A   Clear
8:53 PM 54.0 °F 34.0 °F 47% 29.79 in 10.0 mi Variable 6.9 mph - N/A   Clear
9:53 PM 54.0 °F 34.0 °F 47% 29.79 in 10.0 mi Variable 5.8 mph - N/A   Clear
10:53 PM 53.1 °F 34.0 °F 48% 29.78 in 10.0 mi Variable 4.6 mph - N/A   Clear
11:53 PM 52.0 °F 34.0 °F 50% 29.77 in 10.0 mi Variable 4.6 mph - N/A   Clear